星链-3774 (STARLINK-3774 )

导读

STARLINK-3774是美国太空探索技术公司(SpaceX)星链(Starlink)互联网星座中的一颗低轨通信卫星,于2022年5月18日发射升空。星链项目旨在通过近地轨道卫星群为全球提供高速互联网接入服务,该卫星采用平板设计,搭载氪工质霍尔推进器,具备自主避撞能力,服役寿命结束后会主动离轨再入大气层销毁,属于Starlink星座组网的组成部分,支撑全球覆盖的宽带互联服务。

Basic Information
目录编号:
52680
目录名称:
STARLINK-3774
国际标识:
2022-053AA
轨道中心:
EARTH
卫星名称:
星链-3774
卫星全名:
星链-3774 (STARLINK-3774 )
卫星状态:
在轨 (已飞行1578 天)
发射日期:
2022-05-18 UTC
国别 :
美国 (US)
星等 :
--
This satellite is enrolled in the Space Conjunction Data Service (SCDS) and the current flight risk assessment level is: No High Risk
Orbit Information
数据来源 国际轨道数据
星历时间: 2026-09-12T08:00:02+0800
7小时前
查看轨道信息
半长轴: 6878.192km
偏心率: 0.0001588
轨道倾角: 53.159°
近地点辐角 82.184°
升交点赤经 26.302°
平近点角 187.569°
近地点: 498.962km
远地点: 501.148km
周期: 94.617分钟
每日圈数: 15.219184
Detailed Information
固有亮度:
5
最大亮度:
2.5
卫星平台:
Starlink v1.5
覆盖范围:
全球
运营商:
太空探索技术公司
运营商所在国:
美国
制造商(研发单位):
太空探索技术公司
制造商所在国:
美国
使用方式:
暂无
Satellite Introduction
星链(Starlink)计划是由太空探索技术公司(SpaceX)提出的一个巨型低轨卫星互联网星座项目,计划在2019年至2024年间在太空搭建由约1.2万颗卫星组成的“星链”网络,其中1584颗将部署在地球上空550千米处的近地轨道,并从2020年开始工作。该卫星仍在工作。
2D Orbit Map
3D Orbit Map
Orbit Altitude Analysis Chart
Orbit Inclination Analysis Chart
Orbit Comprehensive Analysis Chart
View Comprehensive Chart
Conjunction Data List
Event ID Objects TCA Miss Dist (km) Collision Risk Probability Collision Risk Index (CRI) Action
CDM_260914-042105-268005-614321
2026-09-14T
04:21:07+0000
0.631 km
远距离
9.597097E-5 中风险 0.75
CDM_260913-175205-268006-901321
CAS500-2 (69013)
2026-09-13T
17:52:19+0000
1.120 km
极远距离
1.743086E-5 中风险 0.6
CDM_260914-073205-268006-453921
ELARA 1 (64539)
2026-09-14T
07:32:18+0000
1.210 km
极远距离
7.240717E-6 低风险 0.52
Miss Distance Evolution Trend with All Objects
Collision Probability Evolution Trend with All Objects